Left ArrowRight Arrow

38.20091, -84.87328

Hourly Observations for February 10, 2023

Temp ( °F °C ) Dew Point ( °F °C ) Humidity (%) Winds ( mph kmh ) Pressure ( in mb ) Visibility ( mi km ) Precip ( " mm )
12:53 am 00:53 Cloudy 44 6.7 N/A N/A W 14 22 30.13 1020 10 16 0.00 0.00
1:19 am 01:19 Cloudy 44 6.7 N/A N/A W 6 9 30.15 1021 10 16 0.00 0.00
1:53 am 01:53 Cloudy 44 6.7 N/A N/A WNW 9 15 30.13 1020 10 16 0.00 0.00
2:53 am 02:53 Cloudy 43 6.1 N/A N/A W 5 7 30.15 1021 10 16 0.00 0.00
3:53 am 03:53 Cloudy 43 6.1 N/A N/A W 9 15 30.18 1022 10 16 0.00 0.00
4:53 am 04:53 Cloudy 42 5.6 N/A N/A WNW 6 9 30.20 1023 10 16 0.00 0.00
5:53 am 05:53 Cloudy 42 5.6 N/A N/A NW 5 7 30.21 1023 10 16 0.00 0.00
6:53 am 06:53 Cloudy 41 5 32 0 70 70 Calm 30.21 1023 10 16 0.00 0.00
7:37 am 07:37 Mostly Cloudy 38 3.3 31 -0.6 76 76 Calm 30.25 1024 10 16 0.00 0.00
7:53 am 07:53 Cloudy 39 3.9 32 0 76 76 Calm 30.24 1024 10 16 0.00 0.00
8:04 am 08:04 Cloudy 40 4.4 33 0.6 76 76 Calm 30.26 1025 10 16 0.00 0.00
8:53 am 08:53 Cloudy 42 5.6 34 1.1 73 73 W 3 6 30.25 1025 10 16 0.00 0.00
9:53 am 09:53 Cloudy 43 6.1 33 0.6 68 68 NW 6 9 30.26 1025 10 16 0.00 0.00
10:53 am 10:53 Cloudy 44 6.7 32 0 62 62 W 5 7 30.27 1025 10 16 0.00 0.00
11:53 am 11:53 Cloudy 45 7.2 33 0.6 63 63 NNW 7 11 30.27 1025 10 16 0.00 0.00
12:53 pm 12:53 Cloudy 46 7.8 33 0.6 60 60 W 6 9 30.26 1025 10 16 0.00 0.00
1:53 pm 13:53 Cloudy 47 8.3 33 0.6 58 58 W 7 11 30.25 1025 10 16 0.00 0.00
2:34 pm 14:34 Cloudy 46 7.8 33 0.6 60 60 W 6 9 30.27 1025 10 16 0.00 0.00
2:49 pm 14:49 Cloudy 46 8 34 1 61 61 WNW 8 13 30.27 1025 10 16 0.00 0.00
2:53 pm 14:53 Cloudy 46 7.8 34 1.1 63 63 WNW 10 17 30.26 1025 10 16 0.00 0.00
3:53 pm 15:53 Cloudy 45 7.2 34 1.1 65 65 NNW 7 11 30.27 1025 10 16 0.00 0.00
4:18 pm 16:18 Cloudy 45 7.2 34 1.1 65 65 WNW 9 15 30.29 1026 10 16 0.00 0.00
4:44 pm 16:44 Cloudy 44 6.7 34 1.1 67 67 NW 10 17 30.29 1026 10 16 0.00 0.00
4:53 pm 16:53 Cloudy 44 6.7 34 1.1 67 67 WNW 9 15 30.29 1026 10 16 0.00 0.00
5:53 pm 17:53 Cloudy 43 6.1 34 1.1 70 70 NNW 9 15 30.31 1027 10 16 0.00 0.00
6:06 pm 18:06 Cloudy 43 6.1 33 0.6 68 68 NNW 8 13 30.33 1027 10 16 0.00 0.00
6:34 pm 18:34 Cloudy 42 5.6 33 0.6 70 70 NW 8 13 30.34 1028 10 16 0.00 0.00
6:53 pm 18:53 Cloudy 42 5.6 33 0.6 70 70 NNW 7 11 30.33 1027 10 16 0.00 0.00
7:53 pm 19:53 Cloudy 42 5.6 33 0.6 70 70 N 5 7 30.35 1028 10 16 0.00 0.00
8:53 pm 20:53 Cloudy 41 5 32 0 70 70 NW 7 11 30.35 1028 10 16 0.00 0.00
9:53 pm 21:53 Cloudy 39 3.9 32 0 76 76 NNW 8 13 30.37 1028 10 16 0.00 0.00
10:28 pm 22:28 Partly Cloudy 37 2.8 31 -0.6 78 78 NNW 6 9 30.40 1030 10 16 0.00 0.00
10:53 pm 22:53 Clear 36 2.2 31 -0.6 82 82 NNW 6 9 30.38 1029 9 14 0.00 0.00
11:53 pm 23:53 Clear 35 1.7 29 -1.7 78 78 N 5 7 30.37 1028 9 14 0.00 0.00

Powered by Vaisala Xweather